{"data":{"norad_id":60747,"intl_designator":"2024-153C","name":"2024-153C","alt_names":[],"object_type":"PAYLOAD","status":"ACTIVE","operator":null,"country":"PRC","launch_date":"2024-08-29","launch_site_code":"YSLA","launch_vehicle":null,"mission":null,"orbit_class":"UNKNOWN","rcs_meters":null,"size_class":null,"mass_kg":null,"dimensions":null,"purposes":[],"wikipedia_slug":null,"has_3d_model":false,"image_url":null,"decayed_at":null,"tle_current":{"epoch":"2026-09-22T23:20:07.228896Z","epoch_age_seconds":78058,"freshness":"FRESH","line1":"1 60747U 24153C   26265.97230589  .00025089  00000+0  51225-3 0  9994","line2":"2 60747  97.6883  53.8198 0008060 155.1200 205.0439 15.46140434115236","mean_motion":15.46140434,"eccentricity":0.000806,"inclination_deg":97.6883,"raan_deg":53.8198,"arg_perigee_deg":155.12,"mean_anomaly_deg":205.0439,"bstar":0.00051225,"rev_number":11523,"period_min":93.135136261497,"perigee_km":422.54342247758,"apogee_km":433.51496237978,"semimajor_km":6806.1661924287,"source":"CELESTRAK","updated_at":"2026-09-23T09:00:20.718044Z"}}}